AZU2620 SBBE-SBSL

Flight info

Callsign AZU2620
Flight time 0h 49m
Altitude 33000
Route ITAKI UZ81 SAVIO
Aircraft A20N/M-SDE2E3FGHIRWXY/LB1

Departure

Time 2026-04-20 13:56
Airport Val de Cans/Júlio Cezar Ribeiro International Airport (SBBE)

Arrival

Time 2026-04-20 14:45
Airport Marechal Cunha Machado International Airport (SBSL)
Time Latitude Longitude Altitude Speed Heading
2026-04-20 13:43 -1.39050 -48.47889 60 ft 0 kts 275°
2026-04-20 13:46 -1.39049 -48.47889 61 ft 0 kts 275°
2026-04-20 13:47 -1.39050 -48.47877 61 ft 2 kts 274°
2026-04-20 13:47 -1.39052 -48.47862 61 ft 2 kts 275°
2026-04-20 13:47 -1.39053 -48.47847 61 ft 2 kts 275°
2026-04-20 13:48 -1.39057 -48.47832 61 ft 2 kts 311°
2026-04-20 13:48 -1.39070 -48.47824 61 ft 2 kts 347°
2026-04-20 13:48 -1.39078 -48.47823 61 ft 1 kts
2026-04-20 13:48 -1.39084 -48.47824 61 ft 0 kts
2026-04-20 13:51 -1.39078 -48.47823 61 ft 1 kts
2026-04-20 13:51 -1.39062 -48.47822 61 ft 3 kts
2026-04-20 13:51 -1.39034 -48.47819 60 ft 5 kts
2026-04-20 13:52 -1.38985 -48.47815 61 ft 9 kts
2026-04-20 13:52 -1.38909 -48.47809 60 ft 11 kts
2026-04-20 13:52 -1.38826 -48.47802 61 ft 12 kts
2026-04-20 13:52 -1.38736 -48.47794 61 ft 13 kts
2026-04-20 13:53 -1.38666 -48.47830 60 ft 13 kts 279°
2026-04-20 13:53 -1.38668 -48.47925 61 ft 13 kts 268°
2026-04-20 13:53 -1.38672 -48.48024 61 ft 14 kts 267°
2026-04-20 13:53 -1.38674 -48.48126 61 ft 14 kts 270°
2026-04-20 13:54 -1.38674 -48.48231 61 ft 15 kts 269°
2026-04-20 13:54 -1.38674 -48.48328 60 ft 7 kts 298°
2026-04-20 13:54 -1.38637 -48.48323 60 ft 0 kts 45°
2026-04-20 13:54 -1.38636 -48.48322 60 ft 3 kts 45°
2026-04-20 13:55 -1.38465 -48.48149 61 ft 70 kts 45°
2026-04-20 13:55 -1.37970 -48.47652 61 ft 129 kts 46°
2026-04-20 13:55 -1.37211 -48.46883 148 ft 167 kts 47°
2026-04-20 13:55 -1.36393 -48.46050 622 ft 171 kts 47°
2026-04-20 13:56 -1.35587 -48.45203 1197 ft 173 kts 49°
2026-04-20 13:56 -1.34964 -48.44139 1572 ft 186 kts 84°
2026-04-20 13:56 -1.35078 -48.42823 2013 ft 199 kts 101°
2026-04-20 13:56 -1.35359 -48.41400 2413 ft 218 kts 101°
2026-04-20 13:57 -1.35636 -48.39819 2829 ft 238 kts 99°
2026-04-20 13:57 -1.35876 -48.38191 3602 ft 242 kts 98°
2026-04-20 13:57 -1.36093 -48.36530 4464 ft 242 kts 97°
2026-04-20 13:57 -1.36297 -48.34885 5313 ft 242 kts 98°
2026-04-20 13:58 -1.36597 -48.33241 6128 ft 244 kts 104°
2026-04-20 13:58 -1.37082 -48.31605 6765 ft 253 kts 109°
2026-04-20 13:58 -1.37679 -48.29905 7290 ft 267 kts 109°
2026-04-20 13:58 -1.38313 -48.28126 8023 ft 272 kts 109°
2026-04-20 13:59 -1.38937 -48.26370 8802 ft 274 kts 109°
2026-04-20 13:59 -1.39572 -48.24581 9563 ft 276 kts 109°
2026-04-20 13:59 -1.40209 -48.22777 10286 ft 278 kts 109°
2026-04-20 13:59 -1.40871 -48.20901 10714 ft 293 kts 109°
2026-04-20 14:00 -1.41563 -48.18937 11027 ft 310 kts 108°
2026-04-20 14:00 -1.42302 -48.16839 11492 ft 321 kts 108°
2026-04-20 14:00 -1.43040 -48.14746 12158 ft 323 kts 109°
2026-04-20 14:00 -1.43789 -48.12624 12829 ft 325 kts 108°
2026-04-20 14:01 -1.44542 -48.10487 13455 ft 328 kts 108°
2026-04-20 14:01 -1.45296 -48.08342 14046 ft 332 kts 108°
2026-04-20 14:01 -1.46073 -48.06129 14606 ft 336 kts 108°
2026-04-20 14:01 -1.46844 -48.03940 15160 ft 340 kts 108°
2026-04-20 14:02 -1.47636 -48.01690 15708 ft 344 kts 109°
2026-04-20 14:02 -1.48436 -47.99413 16213 ft 348 kts 109°
2026-04-20 14:02 -1.49236 -47.97142 16728 ft 351 kts 109°
2026-04-20 14:02 -1.50050 -47.94825 17240 ft 355 kts 109°
2026-04-20 14:03 -1.50873 -47.92488 17744 ft 358 kts 109°
2026-04-20 14:03 -1.51693 -47.90160 18252 ft 360 kts 109°
2026-04-20 14:03 -1.52531 -47.87777 18737 ft 363 kts 109°
2026-04-20 14:03 -1.53371 -47.85391 19245 ft 365 kts 109°
2026-04-20 14:04 -1.53679 -47.84514 19427 ft 366 kts 109°
2026-04-20 14:04 -1.54411 -47.82430 19821 ft 369 kts 109°
2026-04-20 14:05 -1.55255 -47.80031 20255 ft 372 kts 109°
2026-04-20 14:05 -1.56118 -47.77577 20724 ft 374 kts 109°
2026-04-20 14:05 -1.56976 -47.75137 21183 ft 376 kts 109°
2026-04-20 14:05 -1.57852 -47.72647 21610 ft 379 kts 109°
2026-04-20 14:06 -1.58720 -47.70174 22021 ft 381 kts 109°
2026-04-20 14:06 -1.59602 -47.67662 22439 ft 384 kts 109°
2026-04-20 14:06 -1.60483 -47.65154 22869 ft 386 kts 109°
2026-04-20 14:06 -1.61371 -47.62625 23278 ft 389 kts 109°
2026-04-20 14:07 -1.62271 -47.60064 23658 ft 392 kts 109°
2026-04-20 14:07 -1.63176 -47.57484 24069 ft 394 kts 109°
2026-04-20 14:07 -1.64089 -47.54884 24453 ft 397 kts 109°
2026-04-20 14:07 -1.64995 -47.52301 24835 ft 399 kts 109°
2026-04-20 14:08 -1.65913 -47.49678 25205 ft 402 kts 109°
2026-04-20 14:08 -1.66841 -47.47036 25572 ft 404 kts 109°
2026-04-20 14:08 -1.67769 -47.44393 25951 ft 406 kts 109°
2026-04-20 14:08 -1.68710 -47.41705 26325 ft 407 kts 108°
2026-04-20 14:09 -1.69556 -47.39023 26650 ft 410 kts 106°
2026-04-20 14:09 -1.70353 -47.36269 26958 ft 413 kts 106°
2026-04-20 14:09 -1.71151 -47.33478 27303 ft 415 kts 105°
2026-04-20 14:09 -1.71932 -47.30723 27636 ft 417 kts 105°
2026-04-20 14:10 -1.72725 -47.27932 27943 ft 419 kts 105°
2026-04-20 14:10 -1.73525 -47.25114 28247 ft 422 kts 105°
2026-04-20 14:10 -1.74323 -47.22305 28583 ft 423 kts 105°
2026-04-20 14:10 -1.75125 -47.19484 28909 ft 425 kts 105°
2026-04-20 14:11 -1.75935 -47.16635 29192 ft 428 kts 106°
2026-04-20 14:11 -1.76756 -47.13752 29483 ft 430 kts 105°
2026-04-20 14:11 -1.77567 -47.10901 29833 ft 431 kts 105°
2026-04-20 14:11 -1.78387 -47.08021 30257 ft 430 kts 106°
2026-04-20 14:12 -1.79203 -47.05152 30710 ft 428 kts 106°
2026-04-20 14:12 -1.80009 -47.02320 31132 ft 427 kts 106°
2026-04-20 14:12 -1.80830 -46.99435 31475 ft 428 kts 106°
2026-04-20 14:12 -1.81637 -46.96600 31734 ft 430 kts 106°
2026-04-20 14:13 -1.82462 -46.93706 31999 ft 433 kts 106°
2026-04-20 14:13 -1.83277 -46.90841 32290 ft 434 kts 106°
2026-04-20 14:13 -1.84109 -46.87917 32577 ft 435 kts 106°
2026-04-20 14:13 -1.84937 -46.85008 32874 ft 436 kts 106°
2026-04-20 14:14 -1.86599 -46.79172 32945 ft 439 kts 106°
2026-04-20 14:14 -1.88267 -46.73311 32951 ft 438 kts 106°
2026-04-20 14:15 -1.89931 -46.67462 32951 ft 437 kts 106°
2026-04-20 14:15 -1.91585 -46.61650 32949 ft 437 kts 106°
2026-04-20 14:16 -1.93246 -46.55814 32951 ft 438 kts 106°
2026-04-20 14:16 -1.94911 -46.49951 32948 ft 438 kts 106°
2026-04-20 14:17 -1.96571 -46.44112 32940 ft 438 kts 106°
2026-04-20 14:17 -1.98236 -46.38255 32940 ft 437 kts 106°
2026-04-20 14:18 -1.99894 -46.32415 32940 ft 437 kts 106°
2026-04-20 14:18 -2.01541 -46.26587 32937 ft 437 kts 106°
2026-04-20 14:19 -2.03194 -46.20756 32939 ft 437 kts 106°
2026-04-20 14:19 -2.04856 -46.14905 32935 ft 437 kts 106°
2026-04-20 14:20 -2.06515 -46.09064 32935 ft 437 kts 106°
2026-04-20 14:20 -2.07343 -46.06149 32788 ft 438 kts 106°
2026-04-20 14:20 -2.08171 -46.03230 32511 ft 431 kts 106°
2026-04-20 14:21 -2.08976 -46.00397 32245 ft 422 kts 106°
2026-04-20 14:21 -2.09768 -45.97607 31906 ft 414 kts 106°
2026-04-20 14:21 -2.10577 -45.94775 31447 ft 410 kts 106°
2026-04-20 14:21 -2.11362 -45.92065 30920 ft 407 kts 106°
2026-04-20 14:22 -2.12148 -45.89342 30351 ft 406 kts 106°
2026-04-20 14:22 -2.12927 -45.86628 29728 ft 416 kts 105°
2026-04-20 14:22 -2.13733 -45.83808 29056 ft 424 kts 105°
2026-04-20 14:22 -2.14541 -45.80972 28632 ft 422 kts 105°
2026-04-20 14:23 -2.15335 -45.78181 28217 ft 420 kts 105°
2026-04-20 14:23 -2.16124 -45.75398 27772 ft 417 kts 105°
2026-04-20 14:23 -2.16913 -45.72615 27300 ft 414 kts 105°
2026-04-20 14:23 -2.17695 -45.69852 26840 ft 410 kts 105°
2026-04-20 14:24 -2.18463 -45.67142 26398 ft 407 kts 105°
2026-04-20 14:24 -2.19237 -45.64410 25961 ft 403 kts 105°
2026-04-20 14:24 -2.19994 -45.61730 25499 ft 401 kts 105°
2026-04-20 14:24 -2.20751 -45.59056 25035 ft 398 kts 105°
2026-04-20 14:25 -2.21497 -45.56419 24603 ft 394 kts 105°
2026-04-20 14:25 -2.22234 -45.53810 24158 ft 391 kts 105°
2026-04-20 14:25 -2.22970 -45.51208 23706 ft 388 kts 105°
2026-04-20 14:25 -2.23697 -45.48631 23262 ft 385 kts 105°
2026-04-20 14:26 -2.24422 -45.46061 22820 ft 382 kts 105°
2026-04-20 14:26 -2.25141 -45.43513 22374 ft 379 kts 105°
2026-04-20 14:26 -2.25848 -45.41013 21944 ft 376 kts 105°
2026-04-20 14:26 -2.26561 -45.38498 21502 ft 374 kts 105°
2026-04-20 14:27 -2.27267 -45.36014 21042 ft 371 kts 104°
2026-04-20 14:27 -2.27975 -45.33538 20587 ft 369 kts 104°
2026-04-20 14:27 -2.28675 -45.31081 20155 ft 366 kts 104°
2026-04-20 14:27 -2.29366 -45.28645 19670 ft 365 kts 104°
2026-04-20 14:28 -2.30050 -45.26231 19210 ft 362 kts 103°
2026-04-20 14:28 -2.30731 -45.23825 18803 ft 358 kts 103°
2026-04-20 14:28 -2.31413 -45.21416 18362 ft 356 kts 103°
2026-04-20 14:28 -2.32076 -45.19075 17935 ft 353 kts 103°
2026-04-20 14:29 -2.32743 -45.16715 17436 ft 353 kts 102°
2026-04-20 14:29 -2.33411 -45.14351 17018 ft 350 kts 103°
2026-04-20 14:29 -2.34064 -45.12032 16596 ft 347 kts 103°
2026-04-20 14:29 -2.34719 -45.09708 16182 ft 344 kts 103°
2026-04-20 14:30 -2.35362 -45.07425 15675 ft 344 kts 103°
2026-04-20 14:30 -2.36004 -45.05150 15299 ft 340 kts 103°
2026-04-20 14:30 -2.36649 -45.02867 14873 ft 337 kts 103°
2026-04-20 14:30 -2.37281 -45.00625 14377 ft 337 kts 104°
2026-04-20 14:31 -2.37914 -44.98378 13982 ft 333 kts 104°
2026-04-20 14:31 -2.38536 -44.96178 13581 ft 330 kts 104°
2026-04-20 14:31 -2.39160 -44.93970 13152 ft 328 kts 104°
2026-04-20 14:31 -2.39779 -44.91776 12735 ft 326 kts 104°
2026-04-20 14:32 -2.40423 -44.89615 12275 ft 326 kts 108°
2026-04-20 14:32 -2.41292 -44.87512 11867 ft 324 kts 114°
2026-04-20 14:32 -2.42369 -44.85540 11516 ft 319 kts 119°
2026-04-20 14:32 -2.43487 -44.83671 11182 ft 314 kts 119°
2026-04-20 14:33 -2.44608 -44.81814 10846 ft 310 kts 120°
2026-04-20 14:33 -2.45711 -44.79985 10539 ft 304 kts 120°
2026-04-20 14:33 -2.46799 -44.78180 10250 ft 298 kts 119°
2026-04-20 14:33 -2.47849 -44.76432 9991 ft 291 kts 120°
2026-04-20 14:34 -2.48889 -44.74699 9751 ft 284 kts 119°
2026-04-20 14:34 -2.49900 -44.73013 9442 ft 281 kts 119°
2026-04-20 14:34 -2.50889 -44.71361 9130 ft 277 kts 119°
2026-04-20 14:34 -2.51879 -44.69709 8790 ft 275 kts 119°
2026-04-20 14:35 -2.52845 -44.68098 8456 ft 273 kts 119°
2026-04-20 14:35 -2.53538 -44.66940 8209 ft 271 kts 119°
2026-04-20 14:35 -2.54508 -44.65319 7869 ft 269 kts 119°
2026-04-20 14:36 -2.55466 -44.63718 7569 ft 266 kts 119°
2026-04-20 14:36 -2.56417 -44.62129 7234 ft 267 kts 120°
2026-04-20 14:36 -2.57369 -44.60538 6902 ft 266 kts 120°
2026-04-20 14:36 -2.58316 -44.58956 6585 ft 263 kts 120°
2026-04-20 14:37 -2.59260 -44.57381 6274 ft 261 kts 120°
2026-04-20 14:37 -2.60186 -44.55837 5969 ft 257 kts 120°
2026-04-20 14:37 -2.61104 -44.54303 5664 ft 254 kts 120°
2026-04-20 14:37 -2.62014 -44.52784 5363 ft 252 kts 120°
2026-04-20 14:38 -2.62916 -44.51277 5061 ft 249 kts 120°
2026-04-20 14:38 -2.63801 -44.49797 4764 ft 246 kts 120°
2026-04-20 14:38 -2.64685 -44.48319 4466 ft 244 kts 120°
2026-04-20 14:38 -2.65547 -44.46876 4176 ft 241 kts 120°
2026-04-20 14:39 -2.66404 -44.45442 3893 ft 239 kts 120°
2026-04-20 14:39 -2.67258 -44.44011 3601 ft 237 kts 120°
2026-04-20 14:39 -2.68099 -44.42603 3318 ft 236 kts 120°
2026-04-20 14:39 -2.68943 -44.41193 3035 ft 234 kts 120°
2026-04-20 14:40 -2.69781 -44.39793 2754 ft 232 kts 120°
2026-04-20 14:40 -2.70611 -44.38409 2522 ft 228 kts 120°
2026-04-20 14:40 -2.71401 -44.37090 2476 ft 215 kts 120°
2026-04-20 14:40 -2.71990 -44.35775 2445 ft 204 kts 96°
2026-04-20 14:41 -2.71790 -44.34417 2506 ft 195 kts 63°
2026-04-20 14:41 -2.70975 -44.33402 2526 ft 176 kts 45°
2026-04-20 14:41 -2.70086 -44.32657 2529 ft 160 kts 40°
2026-04-20 14:41 -2.69201 -44.31972 2389 ft 159 kts 40°
2026-04-20 14:42 -2.68334 -44.31296 2206 ft 158 kts 40°
2026-04-20 14:42 -2.67494 -44.30628 2000 ft 147 kts 40°
2026-04-20 14:42 -2.66713 -44.30000 1806 ft 143 kts 41°
2026-04-20 14:42 -2.65939 -44.29374 1638 ft 142 kts 41°
2026-04-20 14:43 -2.65160 -44.28743 1469 ft 144 kts 40°
2026-04-20 14:43 -2.64364 -44.28101 1295 ft 150 kts 41°
2026-04-20 14:43 -2.63540 -44.27437 1101 ft 150 kts 40°
2026-04-20 14:43 -2.62729 -44.26785 904 ft 150 kts 40°
2026-04-20 14:44 -2.61923 -44.26125 707 ft 147 kts 39°
2026-04-20 14:44 -2.61126 -44.25483 510 ft 148 kts 40°
2026-04-20 14:44 -2.60315 -44.24831 383 ft 149 kts 40°
2026-04-20 14:44 -2.59514 -44.24187 196 ft 141 kts 41°
2026-04-20 14:45 -2.58813 -44.23620 155 ft 114 kts 38°
2026-04-20 14:45 -2.58374 -44.23268 144 ft 51 kts 39°
2026-04-20 14:45 -2.58132 -44.23076 143 ft 30 kts 36°
2026-04-20 14:45 -2.58057 -44.23018 143 ft 12 kts 180°
2026-04-20 14:46 -2.58139 -44.23079 143 ft 24 kts 220°
2026-04-20 14:46 -2.58305 -44.23217 143 ft 30 kts 219°
2026-04-20 14:46 -2.58460 -44.23341 146 ft 24 kts 218°
2026-04-20 14:46 -2.58453 -44.23438 148 ft 12 kts 306°
2026-04-20 14:47 -2.58458 -44.23505 150 ft 9 kts 244°
2026-04-20 14:47 -2.58482 -44.23567 151 ft 9 kts 249°
2026-04-20 14:47 -2.58468 -44.23593 151 ft 4 kts 338°
2026-04-20 14:48 -2.58427 -44.23608 151 ft 0 kts 340°